Regional Weather Roundup
Issued by NWS

Home | Current Version | Previous Version | Text Only | Print | Product List | Glossary On
Versions: 1 2 3 4 5 6 7 8 9 10 11 12 13 14 15 16 17 18 19 20 21 22 23 24 25 26 27
000
ASUS44 KJAN 222310
RWRMS

MISSISSIPPI HOURLY WEATHER ROUNDUP
NATIONAL WEATHER SERVICE JACKSON MS
600 PM CDT SUN OCT 22 2017

NOTE: "FAIR: INDICATES FEW OR NO CLOUDS BELOW 12,000 FEET WITH NO
SIGNIFICANT WEATHER AND/OR OBSTRUCTIONS TO VISIBILITY.

MSZ001>002-007>008-010>013-018>021-025>028-034>036-230000-
NORTHWEST MISSISSIPPI

CITY           SKY/WX    TMP DP  RH WIND       PRES   REMARKS
BATESVILLE     RAIN      65  62  91 W6        29.98R
CLARKSDALE       N/A     66  66 100 W8G15     29.99S
CLEVELAND      CLOUDY    64  64 100 NW7       30.00R
GREENWOOD      LGT RAIN  66  64  93 VRB6      29.99R
GREENVILLE     CLOUDY    65  59  81 NW8       30.01S
OLIVE BRANCH   LGT RAIN N/A N/A N/A CALM      29.95S
TUNICA           N/A    N/A N/A N/A W5        29.99R
WINONA         LGT RAIN  65  65 100 W3        29.95S
$$

MSZ003>006-009-014>017-022>024-029>033-037>039-230000-
NORTHEAST MISSISSIPPI

CITY           SKY/WX    TMP DP  RH WIND       PRES   REMARKS
COLUMBUS AFB   LGT RAIN  72  68  88 S7        29.99R
CORINTH        CLOUDY    72  68  88 SE8G15    29.95F
GOLDN TRIANGLE CLOUDY    69  67  93 S6        30.00S
STARKVILLE     CLOUDY    68  64  88 SE8       30.00S
TUPELO         LGT RAIN  71  64  78 SE13      29.97S
$$

MSZ040-058-230000-
CENTRAL MISSISSIPPI

CITY           SKY/WX    TMP DP  RH WIND       PRES   REMARKS
JACKSON INTL   CLOUDY    69  64  84 CALM      29.94F
JACKSON HAWKNS LGT RAIN  67  65  93 CALM      29.96R
MADISON        LGT RAIN  64  63  94 CALM      29.95R
MERIDIAN KEY   LGT RAIN  69  68  96 SE6       30.01F
MERIDIAN NAS   LGT RAIN  69  67  93 S3        30.02F
RAYMOND        FAIR      66  64  94 W7        29.97R
VICKSBURG VKS  MOCLDY    70  61  73 W8        30.03R
$$

MSZ059>079-230000-
SOUTH MISSISSIPPI

CITY           SKY/WX    TMP DP  RH WIND       PRES   REMARKS
HATTIESBURG    CLOUDY    70  69  97 E5        29.99F
LAUREL         CLOUDY    70  70 100 SE6       29.99F
MCCOMB         CLOUDY    68  61  78 CALM      29.95F
NATCHEZ        CLOUDY    67  61  81 W7        30.03R
PINE BELT      MOCLDY    69  68  96 E6        29.98F
$$

MSZ080>082-230000-
COASTAL MISSISSIPPI

CITY           SKY/WX    TMP DP  RH WIND       PRES   REMARKS
BAY ST LOUIS   PTCLDY    72  64  78 NE7       29.99F
BILOXI         PTCLDY    70  68  94 N5        29.98F
PASCAGOULA     LGT RAIN  69  67  93 N6        30.00S
GULFPORT       MOCLDY    70  68  93 N7        29.98F
$$

LAZ007>009-015>016-023>026-230000-
NORTHEAST LOUISIANA

CITY           SKY/WX    TMP DP  RH WIND       PRES   REMARKS
BASTROP        FAIR      66  58  74 W3        30.04R
TALLULAH/VBURG CLOUDY    68  63  84 NW5       30.01R
VIDALIA          N/A    N/A N/A N/A MISG      30.01R
$$




USA.gov is the U.S. government's official web portal to all federal, state and local government web resources and services.